Other Surface Observations
Issued by NWS

Home | Current Version | Previous Version | Text Only | Print | Product List | Glossary On
Versions: 1 2 3 4 5 6 7 8 9 10 11 12 13 14 15 16 17 18 19 20 21 22 23 24 25 26 27 28 29 30 31 32 33 34 35 36 37 38 39 40 41 42 43 44 45 46 47 48 49 50
000
SXUS52 KTAE 311118
OSOTAE
OSOTAE
North Florida/South Alabama/Southwest Georgia Weather Roundup
National Weather Service Tallahassee Florida
700 AM EDT THU JUL 31 2014

Note: "fair" indicates few or no clouds below 12,000 feet with no
significant weather and/or obstructions to visibility.

!FLZ017-115-028-034-025-311200
...North Florida...

CITY           SKY/WX    TMP DP  RH WIND       PRES   REMARKS
TALLAHASSEE    PTCLDY    65  61  87 N5        29.99R
APALACHICOLA   CLEAR     64  62  93 NE5       29.98R
PERRY          CLEAR     64  63  94 CALM      29.99R
CROSS CITY       N/A     67  64  90 CALM      29.98R
HOMERVILLE     FOG       68  68 100 CALM      29.99R VSB<1/4
JACKSONVILLE   MOCLDY    70  70 100 CALM      29.97R FOG
$$

!FLZ112-006-005-002-011-311200
...Florida Panhandle...

CITY           SKY/WX    TMP DP  RH WIND       PRES   REMARKS
MARIANNA       CLEAR     65  63  93 CALM      30.00R
BONIFAY        FAIR      60  59  96 CALM      30.01R
PANAMA CITY NW FAIR      64  60  87 CALM      29.99R
TYNDALL AFB    CLEAR     70  61  74 NE2       30.00R
TYND DRONE APT FAIR      68  63  83 NE6       29.98R
DE FUNIAK SPR  FAIR      64  59  86 CALM      30.01R
EGLIN AFB      PTCLDY    64  59  82 N2        30.00R
DESTIN         CLEAR     72  63  73 CALM      30.00R
HURLBURT       CLEAR     63  56  76 N5        29.99R
CRESTVIEW      CLEAR     57  55  93 CALM      30.02R
PENSACOLA      CLEAR     64  59  83 N3        30.00R
$$

!ALZ063-066-311200
...South Alabama...

CITY           SKY/WX    TMP DP  RH WIND       PRES   REMARKS
DOTHAN         CLEAR     62  60  93 CALM      30.04S
OZARK CAIRNS   PTCLDY    63  59  87 NW2       30.01R
FT RUCKER HELI PTCLDY    58  57  97 CALM      30.00R
RUCKER HELI 3  MOCLDY    62  61  96 N2        30.03R
RUCKER HELI 2  FAIR      59  57  93 CALM      30.01R
FLORALA APT    PTCLDY    61  58  90 CALM      30.03R
ANDALUSIA      PTCLDY    67  61  81 CALM      30.01R
TROY           PTCLDY    60  57  89 CALM      30.02R
EUFALA         FAIR      63  61  93 CALM      30.01R
MOBILE         PTCLDY    65  60  84 N3        30.02R
$$

!GAZ120>161-311200
...Southwest and South Central Georgia...

CITY           SKY/WX    TMP DP  RH WIND       PRES   REMARKS
THOMASVILLE    FAIR      66  66 100 CALM      30.01R
BAINBRIDGE     CLEAR     66  63  88 CALM      30.01R
MOODY AFB      MOCLDY    66  65  99 N6        29.99R
VALDOSTA       CLEAR     67  62  84 CALM      29.99R HAZE
MOULTRIE       CLEAR     68  64  88 CALM      30.00S
BLAKELY        CLEAR     63  61  94 CALM      30.01R
ALBANY         CLOUDY    65  61  87 CALM      30.02R
TIFTON         FAIR      66  61  86 CALM      30.00R
FITZGERALD     FAIR      66  64  91 CALM      30.02S
CORDELE        FAIR      65  63  91 CALM      30.02R
AMERICUS       FAIR      64  63  94 CALM      30.03R
$$

!GMZ750-755-770-775-311200
...Coastal and Buoy Obs...

STATION/POSITION TIME  TEMP    WIND        PRES    VSBY  WAVE
                       AIR SEA DIR/SP/G                  HT/PER
                 (UTC) (F)     (DEG/KT/KT) (MB)    (MI)  (FT/S)
KEATON BEACH     1100   71      20/  4/  6 1015.3R
CEDAR KEY        1100   75      10/  4/  5 1015.5R
C TOWER          1100   78      10/  7/  8 1015.3R
APALACHICOLA BUO 1100   82 85  310/  4/  6 1015.2R         1/ 7
PANAMA CITY BUOY 0955   81 85  330/  6/  8 1015.4          1
MOBILE BUOY      1013   81 85   10/  4/  4 1015.3R
ORANGE BCH AL BU 1100   79 83   40/  8/ 10 1015.6R         1
$$



USA.gov is the U.S. government's official web portal to all federal, state and local government web resources and services.